Weather History for KMPV - June, 2014

Change the Weather History Date:

Saturday, June 14, 2014

  Actual Average Record
Temperature  
Mean Temperature 61 °F 62 °F  
Max Temperature 68 °F 74 °F 91 °F (1956)
Min Temperature 54 °F 51 °F 35 °F (1970)
Degree Days  
Heating Degree Days 4    
Cooling Degree Days 0 2  
Month to date cooling degree days 7 17  
Year to date cooling degree days 8 27  
Since 1 June cooling degree days 7 17  
Growing Degree Days 12 (Base 50)    
Moisture  
Dew Point 54 °F    
Average Humidity 78    
Maximum Humidity 100    
Minimum Humidity 55    
Precipitation  
Precipitation 0.15 in 0.13 in 1.33 in (2008)
Month to date precipitation 1.95 1.79  
Year to date precipitation 14.55 14.70  
Sea Level Pressure  
Sea Level Pressure 29.90 in    
Wind  
Wind Speed 6 mph (WNW)    
Max Wind Speed 16 mph    
Max Gust Speed 25 mph    
Visibility 9 miles    
Events Rain    
T = Trace of Precipitation, MM = Missing Value Source: NWS Daily Summary

Daily Weather History Graph

Daily Weather History Graph

Search for Another Location

Airport or City:

Trip Planner

Search our weather history database for the weather conditions in past years. The results will help you decide how hot, cold, wet, or windy it might be!

Date:

Astronomy

Jun. 14, 2014 Rise Set
Actual Time 5:06 AM EDT 8:35 PM EDT
Civil Twilight 4:29 AM EDT 9:11 PM EDT
Nautical Twilight 3:41 AM EDT 9:59 PM EDT
Astronomical Twilight 2:40 AM EDT 11:01 PM EDT
Moon 9:51 PM EDT (6/14) 6:50 AM EDT (6/14)
Length of Visible Light 16h 42m
Length of Day
15h 29m
Full, 97% of the Moon is Illuminated
Jun 14
Full
Jun 19
Last Quarter
Jun 27
New
Jul 5
First Quarter
Jul 12
Full

Hourly Weather History & Observations

Time (EDT) Temp. Dew Point Humidity Pressure Visibility Wind Dir Wind Speed Gust Speed Precip Events Conditions
12:19 AM 57.0 °F 55.0 °F 93% 29.84 in 10.0 mi South 4.6 mph - 0.00 in Rain Light Rain
12:51 AM 57.0 °F 55.0 °F 93% 29.85 in 10.0 mi South 4.6 mph - 0.00 in   Overcast
1:14 AM 57.0 °F 55.0 °F 93% 29.84 in 10.0 mi South 3.5 mph - N/A   Overcast
1:22 AM 57.0 °F 55.0 °F 93% 29.84 in 10.0 mi South 3.5 mph - N/A   Overcast
1:51 AM 57.0 °F 55.0 °F 93% 29.84 in 10.0 mi Calm Calm - N/A   Overcast
2:22 AM 57.0 °F 55.9 °F 96% 29.84 in 2.5 mi Calm Calm - 0.03 in Rain Rain
2:31 AM 57.0 °F 55.9 °F 96% 29.84 in 6.0 mi Calm Calm - 0.04 in Rain Light Rain
2:39 AM 57.0 °F 55.9 °F 96% 29.83 in 10.0 mi Calm Calm - 0.04 in Rain Light Rain
2:51 AM 57.0 °F 55.9 °F 96% 29.84 in 10.0 mi Calm Calm - 0.04 in Rain Light Rain
3:24 AM 57.0 °F 55.9 °F 96% 29.83 in 5.0 mi SSE 3.5 mph - 0.02 in Rain Light Rain
3:51 AM 57.0 °F 55.9 °F 96% 29.83 in 10.0 mi Calm Calm - 0.02 in   Overcast
4:00 AM 57.0 °F 55.0 °F 93% 29.83 in 10.0 mi Calm Calm - 0.00 in Rain Light Rain
4:07 AM 57.0 °F 55.0 °F 93% 29.83 in 10.0 mi East 3.5 mph - 0.00 in Rain Light Rain
4:51 AM 55.9 °F 55.0 °F 97% 29.83 in 10.0 mi Calm Calm - 0.02 in Rain Light Rain
5:21 AM 55.9 °F 55.0 °F 97% 29.84 in 10.0 mi WSW 3.5 mph - 0.01 in   Mostly Cloudy
5:28 AM 55.9 °F 55.0 °F 97% 29.84 in 10.0 mi Calm Calm - 0.01 in Rain Light Rain
5:51 AM 55.9 °F 55.9 °F 100% 29.86 in 6.0 mi Calm Calm - 0.01 in Rain Light Rain
6:02 AM 55.9 °F 55.9 °F 100% 29.86 in 2.5 mi West 3.5 mph - 0.01 in Rain Light Rain
6:04 AM 57.0 °F 55.9 °F 96% 29.86 in 3.0 mi Calm Calm - 0.01 in Rain Light Rain
6:15 AM 57.0 °F 55.9 °F 96% 29.87 in 8.0 mi NNW 5.8 mph - 0.01 in Rain Light Rain
6:32 AM 57.0 °F 55.0 °F 93% 29.87 in 10.0 mi NW 8.1 mph - 0.02 in Rain Light Rain
6:51 AM 57.0 °F 54.0 °F 89% 29.87 in 9.0 mi WNW 11.5 mph - 0.02 in Rain Light Rain
7:51 AM 57.0 °F 55.0 °F 93% 29.89 in 10.0 mi NW 3.5 mph - 0.02 in   Overcast
8:51 AM 57.9 °F 55.0 °F 90% 29.91 in 10.0 mi Calm Calm - 0.00 in   Overcast
9:51 AM 60.1 °F 55.0 °F 83% 29.91 in 10.0 mi WNW 3.5 mph - N/A   Overcast
10:51 AM 60.1 °F 53.1 °F 78% 29.92 in 10.0 mi NW 8.1 mph - N/A   Overcast
11:03 AM 59.0 °F 52.0 °F 78% 29.92 in 10.0 mi Variable 5.8 mph - N/A   Overcast
11:38 AM 61.0 °F 52.0 °F 72% 29.93 in 10.0 mi NW 6.9 mph - N/A   Overcast
11:51 AM 61.0 °F 53.1 °F 75% 29.93 in 10.0 mi NW 8.1 mph - N/A   Overcast
12:09 PM 61.0 °F 54.0 °F 78% 29.92 in 10.0 mi NW 6.9 mph - N/A   Overcast
12:51 PM 62.1 °F 52.0 °F 70% 29.92 in 10.0 mi NNW 6.9 mph - N/A   Overcast
1:25 PM 64.0 °F 53.1 °F 67% 29.92 in 10.0 mi WNW 6.9 mph - N/A   Overcast
1:51 PM 64.4 °F 53.6 °F 68% 29.92 in 10.0 mi Variable 4.6 mph - N/A   Mostly Cloudy
2:51 PM 66.0 °F 53.1 °F 63% 29.91 in 10.0 mi NNW 5.8 mph - N/A   Mostly Cloudy
3:51 PM 68.0 °F 52.0 °F 56% 29.90 in 10.0 mi NNW 9.2 mph 17.3 mph N/A   Partly Cloudy
4:51 PM 64.9 °F 50.0 °F 58% 29.93 in 10.0 mi WNW 13.8 mph 21.9 mph N/A   Scattered Clouds
5:51 PM 62.1 °F 50.0 °F 65% 29.95 in 10.0 mi NW 13.8 mph 23.0 mph N/A   Mostly Cloudy
6:51 PM 62.1 °F 50.0 °F 65% 29.97 in 10.0 mi WNW 13.8 mph - N/A   Mostly Cloudy
7:51 PM 57.0 °F 50.0 °F 77% 29.99 in 10.0 mi WNW 12.7 mph 19.6 mph N/A   Scattered Clouds
8:51 PM 55.9 °F 50.0 °F 80% 30.00 in 10.0 mi Calm Calm - N/A   Mostly Cloudy
9:44 PM 55.9 °F 50.0 °F 80% 30.01 in 10.0 mi WNW 5.8 mph - N/A   Mostly Cloudy
9:51 PM 55.9 °F 50.0 °F 80% 30.01 in 10.0 mi NW 5.8 mph - N/A   Overcast
10:29 PM 55.0 °F 50.0 °F 83% 30.01 in 10.0 mi NW 10.4 mph 19.6 mph N/A   Scattered Clouds
10:51 PM 55.0 °F 51.1 °F 86% 30.01 in 10.0 mi NW 10.4 mph - N/A   Partly Cloudy
11:07 PM 55.9 °F 51.1 °F 84% 30.01 in 10.0 mi NW 9.2 mph - N/A   Mostly Cloudy
11:35 PM 55.0 °F 53.1 °F 93% 30.02 in 6.0 mi WNW 6.9 mph - 0.01 in Rain Light Rain
11:51 PM 55.0 °F 53.1 °F 93% 30.02 in 9.0 mi WNW 8.1 mph - 0.01 in Rain Light Rain